Terminal Aerodrome Forecast
Issued by NWS Mt. Holly, NJ

Home | Current Version | Previous Version | Text Only | Print | Product List | Glossary On
Versions: 1 2 3 4 5 6 7 8 9 10 11 12 13 14 15 16 17 18 19 20 21 22 23 24
000
FTUS41 KPHI 051136
TAFPHL
TAF
KPHL 051136Z 0512/0618 20009KT 5SM BR OVC008
     FM051600 28009KT P6SM SCT015 BKN025
     FM051800 31012KT P6SM SCT040
     FM060000 32007KT P6SM FEW040
     FM060600 35006KT P6SM SCT200
     FM061200 06007KT P6SM BKN150=

USA.gov is the U.S. government's official web portal to all federal, state and local government web resources and services.